Weather History for Kodiak, AK

Change the Weather History Date:

Thursday, December 6, 2012

  Actual Average Record
Temperature  
Mean Temperature 27 °F 32 °F  
Max Temperature 30 °F 36 °F 46 °F (1978)
Min Temperature 23 °F 27 °F 5 °F (1970)
Degree Days  
Heating Degree Days 38 34  
Month to date heating degree days 243 199  
Since 1 July heating degree days 3168 2991  
Cooling Degree Days 0    
Month to date cooling degree days 0  
Year to date cooling degree days 0  
Moisture  
Dew Point 17 °F    
Average Humidity 0    
Maximum Humidity 0    
Minimum Humidity 0    
Precipitation  
Precipitation T in 0.28 in 2.75 in (1998)
Month to date precipitation 0.05 1.65  
Year to date precipitation 52.35 70.92  
Snow  
Snow 0.20 in 0.50 in 7.00 in (1981)
Month to date snowfall 1.6 2.7  
Since 1 July snowfall 9.5 10.2  
Snow Depth 2.00 in    
Sea Level Pressure  
Sea Level Pressure 29.62 in    
Wind  
Wind Speed 17 mph (WNW)    
Max Wind Speed 33 mph    
Max Gust Speed 43 mph    
Visibility 7 miles    
Events Snow    
T = Trace of Precipitation, MM = Missing Value Source: NWS Daily Summary

Daily Weather History Graph

Daily Weather History Graph

Search for Another Location

Airport:

Trip Planner

Search our weather history database for the weather conditions in past years. The results will help you decide how hot, cold, wet, or windy it might be!

Date:

Astronomy

Dec. 06, 2012 Rise Set
Actual Time 9:37 AM AKST 4:24 PM AKST
Civil Twilight 8:47 AM AKST 5:14 PM AKST
Nautical Twilight 7:56 AM AKST 6:06 PM AKST
Astronomical Twilight 7:08 AM AKST 6:53 PM AKST
Moon 12:37 AM AKST (12/6) 1:15 PM AKST (12/6)
Length of Visible Light 8h 27m
Length of Day
6h 47m
Waning Gibbous, 48% of the Moon is Illuminated
Dec 6
Waning Gibbous
Dec 12
New
Dec 19
First Quarter
Dec 28
Full
Jan 4
Last Quarter

Hourly Weather History & Observations

Time (AKST) Temp. Windchill Dew Point Humidity Pressure Visibility Wind Dir Wind Speed Gust Speed Precip Events Conditions
12:06 AM 24.8 °F 8.1 °F 17.6 °F 74% 29.43 in 2.5 mi WNW 28.8 mph 39.1 mph 0.00 in Snow Light Snow
12:34 AM 24.8 °F 9.6 °F 17.6 °F 74% 29.45 in 4.0 mi NW 23.0 mph 36.8 mph 0.00 in Snow Blowing Snow
12:53 AM 24.1 °F 9.0 °F 17.1 °F 75% 29.46 in 6.0 mi NW 21.9 mph 32.2 mph 0.00 in   Mostly Cloudy
1:53 AM 24.1 °F 9.8 °F 18.0 °F 77% 29.49 in 6.0 mi WNW 19.6 mph 35.7 mph 0.00 in Snow Light Snow
2:08 AM 24.8 °F 11.5 °F 17.6 °F 74% 29.50 in 2.5 mi NW 17.3 mph 28.8 mph 0.00 in Snow Light Snow
2:17 AM 24.8 °F 10.3 °F 19.4 °F 80% 29.49 in 1.2 mi NW 20.7 mph 31.1 mph 0.00 in Snow Light Snow
2:24 AM 24.8 °F 10.3 °F 19.4 °F 80% 29.50 in 1.5 mi NW 20.7 mph 32.2 mph 0.00 in Snow Light Snow
2:37 AM 24.8 °F 11.9 °F 17.6 °F 74% 29.50 in 2.5 mi WNW 16.1 mph 32.2 mph 0.00 in Snow Light Snow
2:44 AM 24.8 °F 11.5 °F 17.6 °F 74% 29.51 in 4.0 mi WNW 17.3 mph 28.8 mph 0.00 in Snow Blowing Snow
2:46 AM 24.8 °F 10.0 °F 17.6 °F 74% 29.50 in 4.0 mi NW 21.9 mph 29.9 mph 0.00 in Snow Blowing Snow
3:02 AM 24.8 °F 11.9 °F 17.6 °F 74% 29.51 in 5.0 mi WNW 16.1 mph 27.6 mph 0.00 in Snow Light Snow
3:53 AM 24.1 °F 11.5 °F 19.0 °F 81% 29.54 in 6.0 mi WNW 15.0 mph 24.2 mph 0.00 in Snow Light Snow
4:24 AM 24.8 °F 14.6 °F 17.6 °F 74% 29.54 in 5.0 mi WNW 10.4 mph 21.9 mph 0.00 in Snow Light Snow
4:33 AM 24.8 °F 10.3 °F 17.6 °F 74% 29.55 in 2.5 mi West 20.7 mph 29.9 mph 0.00 in Snow Light Snow
4:43 AM 24.8 °F 10.7 °F 19.4 °F 80% 29.54 in 1.2 mi WNW 19.6 mph 33.4 mph 0.00 in Snow Light Snow
4:53 AM 24.1 °F 11.5 °F 19.0 °F 81% 29.55 in 1.8 mi WNW 15.0 mph 29.9 mph 0.00 in Snow Light Snow
4:55 AM 24.8 °F 11.9 °F 17.6 °F 74% 29.54 in 2.0 mi WNW 16.1 mph 29.9 mph 0.00 in Snow Light Snow
5:12 AM 24.8 °F 10.7 °F 15.8 °F 69% 29.54 in 4.0 mi WNW 19.6 mph 35.7 mph 0.00 in Snow Light Snow
5:53 AM 25.0 °F 8.4 °F 12.9 °F 60% 29.55 in 4.0 mi WNW 28.8 mph 39.1 mph 0.00 in Snow Blowing Snow
6:53 AM 25.0 °F 10.6 °F 10.9 °F 55% 29.56 in 10.0 mi WNW 20.7 mph 33.4 mph N/A   Scattered Clouds
7:53 AM 25.0 °F 11.3 °F 9.0 °F 51% 29.58 in 10.0 mi NW 18.4 mph 27.6 mph N/A   Scattered Clouds
8:53 AM 26.1 °F 13.6 °F 12.0 °F 55% 29.62 in 10.0 mi WNW 16.1 mph 26.5 mph N/A   Scattered Clouds
9:53 AM 26.1 °F 13.6 °F 15.1 °F 63% 29.64 in 10.0 mi WNW 16.1 mph 21.9 mph N/A   Scattered Clouds
10:53 AM 28.0 °F 15.3 °F 19.0 °F 69% 29.66 in 10.0 mi WNW 18.4 mph 28.8 mph N/A   Scattered Clouds
11:53 AM 28.9 °F 16.1 °F 19.0 °F 67% 29.69 in 10.0 mi WNW 19.6 mph - N/A   Partly Cloudy
12:53 PM 28.9 °F 15.4 °F 19.0 °F 67% 29.70 in 10.0 mi WNW 21.9 mph 34.5 mph N/A   Partly Cloudy
1:53 PM 28.9 °F 14.5 °F 18.0 °F 64% 29.70 in 10.0 mi WNW 25.3 mph 38.0 mph N/A   Clear
2:53 PM 28.9 °F 16.1 °F 18.0 °F 64% 29.73 in 10.0 mi WNW 19.6 mph 27.6 mph N/A   Clear
3:53 PM 28.0 °F 15.7 °F 17.1 °F 63% 29.75 in 10.0 mi WNW 17.3 mph 23.0 mph N/A   Clear
4:53 PM 27.0 °F 14.3 °F 17.1 °F 66% 29.75 in 10.0 mi WNW 17.3 mph - N/A   Partly Cloudy
5:53 PM 26.1 °F 15.0 °F 17.1 °F 69% 29.78 in 10.0 mi NW 12.7 mph 20.7 mph N/A   Partly Cloudy
6:53 PM 27.0 °F 17.3 °F 17.1 °F 66% 29.79 in 10.0 mi WNW 10.4 mph - N/A   Scattered Clouds
7:53 PM 27.0 °F 17.3 °F 18.0 °F 69% 29.80 in 10.0 mi NW 10.4 mph - N/A   Mostly Cloudy
8:53 PM 28.0 °F 17.0 °F 18.0 °F 66% 29.81 in 10.0 mi WNW 13.8 mph - N/A   Mostly Cloudy
9:53 PM 27.0 °F 16.1 °F 19.9 °F 75% 29.83 in 6.0 mi WNW 12.7 mph - 0.00 in Snow Light Snow
10:53 PM 26.1 °F 15.6 °F 19.9 °F 78% 29.84 in 10.0 mi NW 11.5 mph - 0.00 in   Overcast
11:53 PM 26.1 °F 15.0 °F 18.0 °F 71% 29.85 in 10.0 mi WNW 12.7 mph - N/A   Overcast